Regional Weather Roundup
Issued by NWS Midland/Odessa, TX

Home | Current Version | Previous Version | Text Only | Print | Product List | Glossary On
Versions: 1 2 3 4 5 6 7 8 9 10 11 12 13 14 15 16 17 18 19 20 21 22 23 24 25 26 27 28 29 30 31 32 33 34 35 36 37 38 39 40 41 42 43 44 45 46 47 48 49 50
217
ASUS44 KMAF 061110
RWRMAF
MIDLAND AREA WEATHER ROUNDUP
NATIONAL WEATHER SERVICE MIDLAND TX
500 AM CST SAT FEB 06 2016

...IN SOUTHWEST TEXAS AND SOUTHEAST NEW MEXICO...

CITY           SKY/WX    TMP DP  RH WIND       PRES   REMARKS
ALPINE         CLOUDY    18  10  73 S6        30.49S WCI  10
ANDREWS        FAIR      25  17  69 NW7       30.41S WCI  18
ARTESIA        CLOUDY    21  12  68 SW6       30.41S WCI  14
BIG SPRING     CLEAR     28  17  66 W9        30.43S WCI  19
CARLSBAD       CLOUDY    24  12  60 W5        30.41F WCI  18
DRYDEN           N/A     38  17  42 NW9       30.42S WCI  31
FORT STOCKTON  CLEAR     32  18  56 SW12      30.45R WCI  23
GUAD PASS      CLOUDY    29  11  47 SW14      30.41S WCI  18
HOBBS          CLEAR     23  16  74 W6        30.40F WCI  16
MARFA          CLOUDY    15   7  70 N6        30.45R WCI   6
MIDLAND AIRPK  CLEAR     31  20  63 NW8       30.41S WCI  23
MIDLAND INTL   CLEAR     28  18  66 W9        30.40F WCI  19
ODESSA         CLEAR     28  17  63 NW7       30.41S WCI  21
PECOS          PTCLDY    26  13  58 W9        30.46S WCI  16
PRESIDIO       FAIR      37  10  32 N8        30.46R WCI  30
SEMINOLE       CLEAR     24  17  73 W6        30.41S WCI  17
SNYDER           N/A     30  19  64 W5        30.38R WCI  25
WINK           CLEAR     24  15  68 N5        30.43S WCI  18
$$
...OTHER STATIONS IN TEXAS...

CITY           SKY/WX    TMP DP  RH WIND       PRES   REMARKS
ABILENE        CLEAR     37  22  54 NW16      30.32R WCI  28
AMARILLO       CLEAR     21  15  78 W7        30.35F WCI  12
AUSTIN         CLEAR     42  37  82 SW5       30.31S WCI  39
BROWNSVILLE    CLOUDY    56  53  90 NW6       30.31S
CORPUS CHRISTI CLEAR     44  40  85 W6        30.32R
DALLAS FTW     PTCLDY    37  32  82 E3        30.21R
DEL RIO        CLEAR     40  24  53 W3        30.42R
EL PASO        PTCLDY    28   6  39 E3        30.43F
HOUSTON INT    MOCLDY    43  37  79 CALM      30.27F
LUBBOCK        CLEAR     20  15  81 NW6       30.36S WCI  12
SAN ANGELO     CLEAR     31  20  63 W7        30.38S WCI  24
SAN ANTONIO    PTCLDY    41  38  89 NW5       30.34S WCI  38
WACO           PTCLDY    39  27  62 W8        30.25S WCI  33
WICHITA FALLS  NOT AVBL
$$
...OTHER LOCATIONS IN NEW MEXICO...

CITY           SKY/WX    TMP DP  RH WIND       PRES   REMARKS
ALAMAGORDO     CLOUDY    21   3  45 SE3       30.43F
ALBUQUERQUE    CLOUDY    26  12  55 N10       30.48R WCI  16
CANNON AFB     CLOUDY    20  13  76 NW6       30.34F WCI  12
CLOVIS         CLOUDY    18  10  73 NW7       30.35F WCI   8
HOLLOMAN AFB   CLOUDY    19   0  43 SE3       30.42F
ROSWELL        CLOUDY    20  10  65 SE6       30.38F WCI  12
RUIDOSO          N/A     27  -2  28 W10G17    30.36F WCI  17
SANTA FE       CLOUDY    18   8  65 NW10      30.41R WCI   6
TRUTH OR CONSE CLEAR     24   3  40 NW7       30.44S WCI  16
TUCUMCARI      CLOUDY    14   9  80 CALM      30.34F
$$




USA.gov is the U.S. government's official web portal to all federal, state and local government web resources and services.